Miscellaneous Local Product
Issued by NWS Hastings, NE

Home | Current Version | Previous Version | Graphics & Text | Print | Product List | Glossary On
Versions: 1 2 3 4 5 6 7 8 9 10 11 12 13 14 15 16 17 18 19 20 21 22 23 24 25 26 27 28 29 30 31 32 33 34 35 36 37 38 39 40 41 42 43 44 45 46 47 48 49 50
000
AXUS43 KGID 030202
MISGRI

GID CWA HOURLY WEATHER ROUNDUP
NATIONAL WEATHER SERVICE HASTINGS NE
900 PM CDT MON MAY 02 2016

NOTE: "FAIR" INDICATES FEW OR NO CLOUDS BELOW 12,000 FEET WITH NO
SIGNIFICANT WEATHER AND/OR OBSTRUCTIONS TO VISIBILITY.

...SOUTH CENTRAL NEBRASKA...

CITY           SKY/WX    TMP DP  RH WIND       PRES   REMARKS
GRAND ISLAND   PTCLDY    54  39  57 S6        30.04F
HASTINGS       CLOUDY    53  39  59 SE5       30.04F
KEARNEY        CLOUDY    52  39  62 SE7       30.04S
ORD            PTCLDY    49  42  77 S3        30.01F
YORK           MOCLDY    54  41  62 S6        30.05S
AURORA         PTCLDY    55  41  58 S3        30.04F
LEXINGTON      PTCLDY    51  40  66 SE7       30.03S
HOLDREGE       CLOUDY    52  42  69 SE7       30.04R
HEBRON         CLOUDY    52  42  69 CALM      30.06S

...NEBRASKA PANHANDLE...

CITY           SKY/WX    TMP DP  RH WIND       PRES   REMARKS
CHADRON        CLOUDY    53  39  59 SE6       30.01S
ALLIANCE       MOCLDY    49  39  68 NE7       30.02R
SCOTTSBLUFF    MOCLDY    57  31  37 NW17      30.02R
SIDNEY         CLOUDY    53  33  46 CALM      30.04S

...WESTERN AND NORTH CENTRAL NEBRASKA...

CITY           SKY/WX    TMP DP  RH WIND       PRES   REMARKS
VALENTINE      LGT RAIN  51  40  65 NW8       30.04R
AINSWORTH      CLOUDY    52  43  69 E5        30.01S
ONEILL         CLOUDY    52  45  78 CALM      30.02F
BROKEN BOW     PTCLDY    50  39  66 SE5       30.02S
IMPERIAL         N/A     58  29  33 W15       30.04S
NORTH PLATTE   LGT RAIN  50  39  66 N6        30.04R
MCCOOK         CLOUDY    55  37  50 NW5       30.03S

...EASTERN NEBRASKA...

CITY           SKY/WX    TMP DP  RH WIND       PRES   REMARKS
NORFOLK        PTCLDY    51  42  71 S5        30.02S
SO SIOUX CITY  CLOUDY    57  44  62 S5        30.02F
TEKAMAH        PTCLDY    57  47  69 S6        30.03S
COLUMBUS       PTCLDY    54  37  54 S5        30.05R
ALBION         PTCLDY    50  43  75 CALM      30.03S
OMAHA EPPLEY   PTCLDY    55  42  61 CALM      30.04S
OFFUTT AFB     CLEAR     53  49  84 N2        30.03F
MILLARD        PTCLDY    57  39  52 CALM      30.04S
LINCOLN        CLEAR     59  39  47 CALM      30.06S
NEBRASKA CITY  CLEAR     55  40  56 CALM      30.05S
BEATRICE       CLEAR     56  39  51 CALM      30.05S
FALLS CITY     PTCLDY    53  43  68 S3        30.05S

...NORTHERN KANSAS...

CITY           SKY/WX    TMP DP  RH WIND       PRES   REMARKS
GOODLAND       PTCLDY    52  34  50 N3        30.06S
HILL CITY      MOCLDY    56  40  55 E3        30.04F
NORTON         CLEAR     55  37  50 NE5       30.03S
PHILLIPSBURG   CLEAR     55  43  62 CALM      30.05S
SMITH CENTER   CLEAR     52  43  71 E7        30.06S
BELOIT         CLEAR     54  39  58 E5        30.05F
HAYS           MOCLDY    55  37  50 E3        30.05S
RUSSELL        MOCLDY    54  44  69 E7        30.04S
CONCORDIA      MOCLDY    54  39  57 CALM      30.06S
SALINA         PTCLDY    55  40  56 CALM      30.07S
TOPEKA         CLEAR     52  45  77 CALM      30.07S



USA.gov is the U.S. government's official web portal to all federal, state and local government web resources and services.